Wetbulb
52.50 51.48 51.14 52.49 53.21 53.21 52.71 51.61 49.55 46.22 45.37 45.54 44.87 46.30 47.20 45.82 45.80 47.14 48.78 49.45 48.63 47.95 48.06 49.31 50.53 51.19 51.23 51.21 51.67 51.68 52.15 51.18 50.62 50.30 49.96 49.72 49.48 49.06
54.84 54.29 53.84 53.90 54.00 54.25 53.63 53.29 52.38 50.44 48.30 48.72 46.42 47.14 47.24 48.19 47.49 46.26 46.58 48.87 47.79 47.16 46.62 47.10 48.12 49.25 49.91 49.89 50.02 50.22 50.62 50.76 50.34 49.75 49.26 49.00 49.03 48.77
56.73 55.55 54.99 55.51 55.04 55.90 56.29 55.15 53.46 52.14 50.08 52.34 50.36 48.17 45.89 46.41 46.52 46.70 46.58 46.46 47.16 46.87 46.17 46.01 45.89 46.59 47.28 47.71 47.97 48.52 48.82 49.20 49.39 49.42 48.75 48.49 48.51 48.47
57.71 57.05 56.33 56.70 55.34 55.70 55.65 55.60 55.61 55.41 53.31 51.63 53.93 49.51 47.41 47.57 48.56 46.59 46.60 46.68 46.43 46.48 46.22 45.62 45.08 44.89 44.80 45.24 45.61 46.03 46.43 46.79 47.02 47.34 47.73 47.93 47.44 47.48
58.48 57.99 57.69 57.28 56.50 56.19 55.69 55.17 55.74 56.26 55.64 53.39 53.62 54.23 51.97 47.96 47.05 46.41 46.28 46.79 46.36 47.21 44.97 45.04 44.62 44.55 44.36 44.21 44.36 44.71 44.85 44.95 44.64 44.71 44.80 44.84 45.38 46.19
59.73 59.17 58.73 58.12 57.45 57.31 56.92 56.35 55.84 55.49 55.42 54.86 54.03 54.25 54.23 50.56 48.45 46.32 45.17 45.08 45.83 46.23 45.74 44.17 44.54 44.50 44.15 43.76 43.59 43.67 43.69 43.87 43.90 43.63 43.02 42.06 41.80 42.87
60.26 60.02 59.76 58.09 53.79 55.11 57.97 57.38 56.95 56.28 55.90 55.63 54.81 54.73 54.00 48.15 48.14 50.25 48.78 49.93 44.89 46.12 44.28 44.35 43.25 43.18 44.07 43.70 44.07 43.66 43.07 42.75 42.95 43.26 42.83 41.95 41.01 40.99
59.87 60.50 60.36 53.82 52.85 47.88 47.49 48.59 54.77 56.86 55.96 55.75 55.19 54.41 54.42 54.15 53.33 52.55 50.14 45.13 44.57 46.60 46.32 45.38 44.74 43.48 43.95 43.61 43.47 42.65 42.16 42.06 42.09 42.30 42.20 41.87 41.20 40.34
60.29 60.11 59.56 59.72 53.76 58.48 50.07 44.66 44.95 44.50 48.48 57.05 55.98 55.86 55.36 55.68 55.47 52.85 51.03 50.08 49.70 48.61 46.13 44.90 46.63 44.02 45.94 44.57 42.96 42.17 41.86 41.63 41.53 41.40 41.14 40.96 40.45 39.84
60.64 60.53 59.94 59.77 59.55 58.48 58.53 58.23 56.34 55.07 52.55 52.14 54.67 56.87 57.97 57.89 57.04 55.49 53.47 52.37 52.01 52.12 47.63 45.09 45.24 44.95 46.82 46.23 43.38 42.55 41.73 41.36 41.30 40.86 40.78 40.20 39.67 39.49
59.73 60.73 60.69 60.00 54.48 48.63 57.02 57.82 57.92 57.85 52.58 47.51 48.82 49.41 48.49 47.49 51.08 56.26 52.75 51.11 48.96 49.95 46.86 47.88 47.98 44.12 41.83 45.18 45.55 42.15 41.53 41.06 40.80 40.70 40.36 40.09 39.70 39.04
58.27 59.53 49.53 54.57 49.03 45.77 54.84 57.34 56.62 57.33 58.01 58.26 55.52 49.87 48.23 51.82 45.23 53.14 55.27 51.17 49.46 48.61 50.34 45.58 47.46 40.73 38.07 38.90 44.65 44.15 42.45 40.10 40.17 40.23 40.30 39.96 39.67 38.90
49.47 54.93 58.35 46.85 44.86 45.40 44.86 57.36 56.90 57.08 54.81 55.96 57.79 57.95 57.21 54.79 54.73 54.24 54.28 53.93 51.76 50.48 51.40 48.20 46.37 43.14 44.83 40.62 36.66 41.63 44.40 41.61 39.47 39.21 39.70 39.73 39.60 39.39
43.96 47.39 49.65 43.59 41.60 40.69 41.02 41.96 41.05 41.18 52.23 52.95 54.36 55.66 56.22 56.70 57.25 55.63 55.66 54.24 55.03 55.19 55.65 48.65 48.53 47.59 44.54 42.48 43.12 37.38 40.65 42.78 40.86 38.78 38.59 39.91 38.89 38.81
41.60 41.49 38.45 38.66 38.86 41.51 41.60 37.97 35.79 46.35 49.28 49.94 50.55 51.79 53.90 56.15 57.63 56.85 55.90 55.52 54.97 54.34 54.68 55.61 51.25 49.50 48.59 46.48 43.25 37.15 37.07 37.78 40.34 39.68 37.55 37.14 36.57 36.23
37.37 41.67 38.72 35.59 36.88 38.47 42.58 46.14 48.89 49.48 49.62 49.67 49.96 51.38 53.07 53.63 54.09 56.06 55.02 54.29 52.62 52.68 53.37 54.06 53.26 51.21 46.50 47.31 46.28 36.47 37.97 37.81 37.64 37.78 38.03 36.18 36.06 34.82
36.50 37.71 36.34 35.89 36.64 37.89 39.39 40.38 41.52 41.89 42.17 46.30 48.82 49.12 49.74 50.81 51.19 52.85 53.27 53.77 52.61 52.13 51.25 46.37 47.27 48.50 45.75 40.52 35.91 38.22 36.29 37.18 37.45 36.62 36.84 34.84 35.22 36.85
33.39 32.22 31.60 31.88 32.20 32.91 33.88 35.02 36.74 37.08 38.67 39.94 41.81 43.79 46.41 48.40 49.03 50.24 50.71 50.60 50.59 51.36 48.76 38.81 39.29 38.38 37.17 37.94 39.16 36.08 35.75 36.08 36.47 38.60 37.17 35.87 35.22 35.91
29.43 28.92 28.80 29.48 30.07 31.25 31.99 32.28 31.93 34.38 36.60 37.27 38.05 38.27 39.11 40.17 41.42 45.70 48.17 48.87 42.30 38.99 37.17 37.69 39.57 38.94 36.03 33.87 35.10 34.56 36.86 36.51 36.05 35.35 35.88 35.16 32.89 32.80
28.67 28.11 28.34 28.66 29.11 29.58 30.10 31.15 31.71 32.42 32.79 33.53 35.00 35.73 36.37 37.11 36.01 36.37 37.40 36.41 35.85 35.32 35.62 36.72 36.92 37.22 36.52 33.47 29.94 30.57 33.53 33.63 33.18 32.04 31.69 32.35 32.38 32.61
27.03 27.16 28.06 28.54 28.92 29.46 30.17 30.87 31.99 31.80 31.83 32.01 32.17 32.22 33.36 35.18 35.12 35.29 35.65 34.60 35.10 34.89 33.30 32.82 35.62 35.88 36.73 34.74 30.05 29.39 31.25 33.60 33.72 32.74 32.20 31.45 30.59 30.35
26.24 26.66 27.66 28.40 28.78 29.39 30.06 30.44 30.95 31.93 31.93 31.80 31.66 31.90 31.92 31.96 31.78 32.40 33.62 32.52 31.85 31.64 31.25 31.69 32.44 33.35 33.23 31.37 29.32 29.92 30.62 30.43 30.51 30.36 31.17 31.87 30.47 25.54
25.42 26.48 27.49 28.05 28.65 29.23 29.80 30.08 30.59 31.77 31.96 31.83 31.84 31.86 31.98 31.57 31.79 31.96 31.96 31.87 31.66 31.60 31.72 31.21 31.56 31.98 31.36 30.87 29.82 29.13 28.37 28.01 27.05 26.05 26.80 29.49 29.61 29.66
MSLP
1024.15 1024.57 1024.84 1024.89 1025.06 1025.29 1025.51 1025.76 1026.07 1026.45 1026.08 1025.53 1025.64 1024.97 1024.93 1025.24 1025.16 1025.54 1025.68 1025.71 1026.06 1026.43 1026.66 1026.77 1027.01 1027.27 1027.47 1027.64 1027.83 1027.97 1028.10 1028.26 1028.33 1028.46 1028.53 1028.61 1028.70 1028.81
1023.34 1023.58 1023.90 1024.02 1024.04 1024.10 1024.35 1024.73 1025.01 1025.06 1024.79 1024.33 1024.30 1024.02 1024.17 1024.21 1024.23 1024.58 1024.58 1024.75 1024.98 1025.19 1025.56 1025.82 1026.04 1026.23 1026.50 1026.77 1026.96 1027.16 1027.34 1027.46 1027.60 1027.76 1027.81 1027.98 1028.14 1028.23
1022.56 1022.67 1022.64 1022.92 1023.24 1023.38 1023.56 1023.64 1023.70 1023.99 1023.73 1022.91 1023.06 1023.03 1023.51 1023.58 1023.51 1023.62 1023.66 1023.81 1023.80 1024.01 1024.22 1024.49 1024.78 1025.06 1025.38 1025.69 1025.95 1026.17 1026.36 1026.54 1026.71 1026.81 1026.99 1027.12 1027.20 1027.29
1021.43 1021.84 1021.88 1022.14 1022.18 1022.27 1022.58 1022.58 1022.67 1022.53 1022.66 1022.46 1022.33 1022.62 1022.69 1022.44 1022.25 1022.69 1022.62 1022.61 1022.62 1022.51 1022.83 1023.12 1023.47 1023.81 1024.07 1024.29 1024.63 1024.96 1025.25 1025.42 1025.70 1025.96 1026.05 1026.14 1026.28 1026.37
1020.43 1020.66 1020.62 1020.87 1021.19 1021.17 1021.31 1021.49 1021.58 1021.56 1021.68 1021.70 1020.91 1021.20 1021.43 1021.68 1021.84 1021.77 1021.67 1021.50 1021.58 1021.45 1021.63 1021.84 1022.17 1022.36 1022.66 1022.95 1023.20 1023.60 1023.92 1024.25 1024.51 1024.69 1025.01 1025.13 1025.26 1025.48
1019.45 1019.71 1019.74 1019.79 1019.76 1019.86 1020.24 1020.30 1020.42 1020.51 1020.34 1020.20 1020.12 1020.18 1020.37 1020.61 1020.96 1020.72 1020.86 1020.91 1020.62 1020.66 1020.75 1020.68 1021.01 1021.25 1021.45 1021.59 1021.86 1022.02 1022.43 1022.74 1023.08 1023.38 1023.53 1023.89 1024.25 1024.43
1018.28 1018.43 1018.45 1018.39 1018.40 1018.57 1018.91 1019.10 1019.37 1019.26 1019.07 1019.03 1018.84 1018.85 1019.05 1019.57 1019.38 1019.30 1019.63 1019.31 1019.71 1019.82 1020.03 1019.81 1020.16 1020.19 1020.03 1020.44 1020.57 1020.71 1020.72 1021.01 1021.42 1021.86 1022.15 1022.42 1022.76 1022.96
1016.91 1016.95 1017.14 1017.18 1017.32 1017.37 1017.61 1017.64 1017.67 1018.04 1017.99 1017.93 1017.69 1017.41 1017.05 1017.31 1017.45 1017.70 1018.14 1018.92 1018.95 1017.90 1018.36 1017.90 1018.53 1018.53 1018.38 1018.51 1018.26 1018.64 1019.05 1019.32 1019.68 1020.12 1020.61 1021.00 1021.36 1021.65
1015.70 1015.75 1015.80 1015.88 1016.06 1016.38 1016.51 1016.70 1016.72 1016.79 1016.57 1016.55 1016.39 1015.88 1015.60 1015.61 1016.11 1016.55 1016.77 1016.58 1016.62 1016.45 1017.32 1016.80 1016.59 1016.62 1016.31 1016.58 1016.70 1016.93 1017.30 1017.62 1017.99 1018.40 1018.96 1019.49 1019.92 1020.19
1014.84 1014.82 1014.77 1014.72 1014.93 1015.26 1015.35 1015.15 1015.01 1015.02 1015.12 1015.62 1015.46 1014.83 1014.64 1014.52 1014.62 1014.69 1014.89 1015.24 1015.31 1015.25 1015.82 1015.94 1015.30 1014.82 1014.77 1014.72 1014.90 1015.35 1015.70 1016.06 1016.47 1016.99 1017.44 1018.04 1018.50 1018.94
1014.13 1013.91 1013.85 1013.85 1014.02 1014.30 1014.31 1013.89 1013.57 1013.08 1013.27 1013.41 1013.61 1013.61 1013.66 1013.68 1013.60 1013.92 1013.89 1014.10 1013.70 1013.69 1014.41 1014.30 1014.12 1014.15 1013.96 1013.84 1013.72 1013.71 1014.11 1014.51 1014.93 1015.39 1015.86 1016.46 1017.14 1017.66
1013.59 1013.24 1013.09 1013.12 1013.07 1013.12 1013.13 1012.77 1012.23 1011.94 1011.97 1012.24 1011.99 1012.24 1012.54 1012.50 1012.70 1012.71 1012.61 1012.35 1012.25 1012.10 1012.44 1013.48 1012.85 1013.56 1013.36 1011.95 1012.38 1012.31 1012.73 1013.03 1013.20 1013.86 1014.56 1015.10 1015.71 1016.92
1013.91 1013.24 1012.67 1012.52 1012.26 1012.00 1011.90 1011.68 1011.12 1011.09 1010.96 1011.04 1010.64 1010.46 1010.21 1010.48 1010.52 1010.68 1010.58 1010.69 1010.44 1009.79 1010.10 1010.85 1010.72 1011.34 1011.72 1011.04 1010.55 1011.09 1011.16 1011.34 1012.23 1012.60 1013.08 1013.69 1014.35 1015.23
1014.70 1013.99 1013.49 1013.01 1012.61 1012.36 1011.97 1011.46 1011.18 1010.91 1010.77 1010.31 1009.91 1009.36 1008.39 1008.45 1008.23 1008.32 1008.21 1008.31 1007.97 1007.50 1007.93 1008.77 1008.43 1009.32 1009.36 1009.88 1009.63 1009.51 1010.22 1010.19 1010.89 1011.43 1011.94 1012.44 1013.19 1013.94
1015.22 1014.63 1013.89 1013.12 1012.52 1011.92 1011.42 1011.06 1010.91 1010.63 1010.04 1009.54 1008.90 1008.20 1007.86 1007.14 1006.87 1006.90 1006.61 1006.53 1006.10 1005.68 1005.89 1006.34 1006.51 1006.92 1007.34 1007.15 1007.51 1007.78 1009.14 1009.41 1009.68 1010.13 1010.79 1011.76 1012.43 1013.13
1015.14 1014.57 1014.06 1013.62 1013.16 1012.60 1011.85 1011.21 1010.62 1009.98 1009.38 1008.69 1007.97 1007.24 1006.84 1006.36 1005.95 1005.62 1005.23 1005.09 1004.80 1004.04 1004.30 1004.45 1004.74 1005.23 1005.29 1005.60 1005.94 1006.94 1007.41 1008.46 1009.39 1009.79 1010.20 1011.13 1011.97 1012.42
1015.77 1015.40 1014.92 1014.44 1013.88 1013.43 1012.88 1012.26 1011.63 1010.99 1010.13 1009.04 1007.82 1006.83 1006.14 1005.50 1004.69 1004.42 1004.06 1003.69 1003.07 1002.57 1002.60 1003.32 1003.82 1004.21 1004.79 1005.76 1006.35 1006.25 1007.34 1008.20 1009.02 1009.92 1010.69 1011.40 1012.04 1011.97
1016.63 1016.36 1016.09 1015.58 1015.03 1014.47 1013.80 1013.02 1012.31 1011.69 1010.85 1009.80 1008.59 1007.40 1006.04 1004.77 1003.81 1003.20 1002.96 1002.67 1002.18 1001.78 1001.84 1003.01 1003.70 1004.51 1005.51 1006.32 1006.51 1006.66 1007.47 1008.49 1009.13 1010.01 1010.56 1011.23 1012.04 1012.28
1017.77 1017.47 1017.13 1016.64 1015.91 1015.19 1014.54 1013.82 1013.06 1012.36 1011.45 1010.38 1009.22 1008.02 1006.88 1005.51 1004.06 1002.56 1001.80 1001.19 1001.21 1001.58 1002.20 1002.80 1003.45 1004.12 1005.10 1006.16 1007.52 1007.39 1007.93 1008.91 1009.57 1010.34 1010.95 1011.66 1012.64 1013.31
1018.68 1018.45 1017.99 1017.44 1016.73 1015.87 1014.99 1014.10 1013.19 1012.49 1011.68 1010.70 1009.64 1008.66 1007.40 1006.26 1004.81 1003.69 1002.71 1002.14 1002.35 1002.73 1003.38 1003.77 1004.07 1004.37 1005.01 1006.63 1008.17 1009.50 1009.15 1009.59 1010.10 1011.04 1011.81 1012.62 1013.54 1014.05
1019.71 1019.33 1018.73 1018.06 1017.39 1016.54 1015.45 1014.36 1013.39 1012.60 1012.01 1011.15 1010.21 1009.26 1008.24 1007.07 1006.13 1005.45 1004.48 1004.16 1004.32 1004.63 1005.05 1005.36 1005.57 1005.62 1006.22 1007.02 1008.84 1010.33 1010.92 1010.80 1010.78 1011.21 1012.24 1012.98 1013.87 1014.59
1020.65 1020.03 1019.41 1018.61 1017.75 1016.96 1015.68 1014.63 1013.81 1013.04 1012.24 1011.44 1010.69 1009.85 1009.07 1008.29 1007.58 1006.88 1006.31 1006.13 1006.36 1006.43 1006.66 1007.01 1006.90 1006.95 1007.51 1008.09 1009.86 1010.99 1011.92 1012.51 1012.56 1012.62 1012.80 1013.13 1014.02 1014.83
1021.32 1020.64 1019.82 1019.07 1018.34 1017.44 1016.28 1015.25 1014.47 1013.66 1012.87 1012.03 1011.20 1010.54 1009.96 1009.41 1008.85 1008.21 1007.81 1007.77 1007.77 1007.63 1007.75 1007.90 1008.07 1008.28 1009.06 1009.81 1010.68 1011.81 1012.50 1013.19 1013.61 1013.99 1014.65 1014.73 1014.92 1015.43
Wind_Speed
11 10 9 8 7 8 7 6 6 8 6 5 5 8 9 8 13 12 13 17 21 21 21 22 22 22 22 22 22 22 21 22 22 22 22 21 21 20
10 11 11 10 10 8 8 8 8 10 12 5 6 6 7 8 11 13 14 19 20 23 23 24 23 23 23 23 23 22 23 23 23 23 24 23 23 22
12 12 15 14 10 9 8 10 9 8 12 11 6 6 6 8 7 11 11 12 12 22 25 25 25 24 23 23 23 23 24 24 24 24 24 25 25 24
16 14 15 10 13 13 10 13 11 11 10 17 11 5 8 8 10 10 10 10 12 17 24 25 25 25 25 24 24 24 24 24 24 24 24 24 25 26
16 16 17 15 15 12 12 12 11 10 11 12 14 7 7 3 6 7 8 11 9 17 18 23 25 26 26 26 26 25 25 25 25 25 25 25 24 24
16 15 16 16 17 16 14 14 12 12 11 11 11 12 10 6 6 6 8 7 11 9 14 15 19 25 26 26 25 27 27 27 27 26 27 25 24 24
16 16 17 19 20 18 11 13 14 13 11 11 12 11 10 6 9 6 10 10 8 9 8 9 9 11 14 23 22 27 29 28 28 28 28 26 26 27
16 17 17 16 18 20 20 23 18 13 14 12 12 14 17 14 12 12 10 5 7 10 11 14 9 12 11 12 23 29 27 29 28 28 28 28 27 27
16 16 15 13 15 16 19 20 21 20 20 18 17 17 16 15 13 12 13 12 13 3 8 9 9 13 12 12 23 26 28 27 29 28 28 27 27 26
16 16 17 18 16 15 16 18 17 18 19 17 21 21 17 14 13 14 16 16 12 9 8 9 5 11 9 12 21 26 27 27 27 26 27 26 25 25
15 16 17 17 17 16 17 19 18 16 13 22 25 26 27 22 15 10 10 11 12 12 8 9 10 7 4 9 10 23 26 26 26 27 26 25 24 23
12 14 16 17 15 16 17 18 19 18 15 15 11 19 24 24 21 19 14 12 12 11 9 11 12 5 4 6 11 10 12 24 26 24 23 23 22 9
6 8 8 12 17 20 19 18 19 15 16 15 16 14 12 15 15 16 18 17 15 16 10 10 8 8 9 6 4 7 10 7 10 11 21 22 21 18
7 7 9 15 17 11 9 13 14 9 11 10 11 12 11 13 12 14 18 18 19 23 17 17 12 14 13 8 8 5 7 7 7 7 7 10 16 19
6 11 17 16 16 12 11 11 7 5 7 9 11 12 11 11 13 13 15 19 22 23 18 22 15 16 15 15 8 5 5 6 8 7 6 6 5 5
7 6 8 9 8 8 10 9 7 7 9 11 12 11 11 11 13 11 13 12 13 15 18 21 19 20 14 14 10 4 4 4 4 3 3 4 4 3
8 7 8 9 9 9 9 10 9 9 10 11 12 12 12 12 13 12 14 15 17 17 14 7 7 7 2 4 2 4 5 3 3 3 3 3 1 4
7 9 8 8 8 8 9 9 9 10 10 10 10 11 13 12 14 13 13 15 17 15 11 4 5 5 3 5 11 3 4 4 4 5 3 4 2 4
9 9 9 9 9 8 8 8 9 10 12 9 9 9 9 10 12 13 13 13 5 1 3 3 5 4 4 5 3 23 8 6 5 4 4 4 6 7
8 8 8 9 10 9 9 8 8 9 9 10 9 9 9 8 7 9 6 4 5 4 5 5 4 2 5 4 6 4 14 5 6 7 7 8 8 12
9 9 9 8 9 9 9 8 9 9 9 8 8 8 9 7 7 8 8 12 11 8 9 9 8 12 10 8 10 8 9 18 12 8 7 8 7 6
8 8 9 9 9 10 10 9 9 9 9 8 8 8 8 7 7 6 6 7 7 7 8 6 6 8 10 14 12 12 11 11 17 22 19 10 2 4
9 8 8 9 9 9 9 10 10 9 9 9 8 8 7 7 7 7 7 7 7 8 9 10 9 10 11 11 13 12 16 11 9 11 11 17 18 16
Wind_Direction
213 211 217 224 212 216 218 209 222 267 264 236 232 213 218 209 219 213 217 222 218 221 220 222 225 228 229 232 236 238 240 243 246 247 248 247 247 248
218 213 221 226 222 214 214 226 228 235 261 207 221 219 207 217 223 213 220 221 216 218 219 222 223 225 228 229 231 233 235 235 239 244 247 248 248 249
224 220 225 226 231 229 224 231 226 226 247 257 229 215 208 212 217 216 221 219 224 219 220 221 220 221 223 226 228 230 231 233 235 237 243 245 246 247
227 225 232 230 232 230 230 233 233 225 241 253 247 222 218 213 227 218 221 225 225 221 219 221 220 220 220 221 223 226 229 230 232 235 237 241 245 247
230 227 230 227 234 230 229 233 234 232 229 247 254 235 219 195 222 231 220 226 229 228 217 220 220 221 221 221 222 223 227 228 228 229 233 235 237 241
233 233 235 230 227 232 233 236 238 238 234 234 242 248 239 222 215 219 237 225 235 224 229 224 223 226 226 225 222 223 225 227 228 228 229 230 232 234
234 235 235 234 229 231 226 233 237 237 237 240 241 243 233 207 218 223 237 246 241 222 226 232 216 222 228 232 234 229 227 226 227 228 230 229 228 229
234 235 240 236 234 229 223 231 232 232 238 238 242 241 238 233 233 236 233 201 261 189 210 244 202 226 227 219 220 226 224 225 225 226 228 229 229 230
237 239 241 240 237 240 233 237 241 236 235 243 245 242 244 234 233 230 225 229 236 203 196 246 194 229 222 225 221 219 221 222 223 223 225 228 229 230
245 247 246 244 240 234 238 242 235 235 233 239 247 255 254 250 236 226 226 235 246 239 195 242 200 233 219 224 217 218 220 221 222 223 224 226 227 229
251 247 245 248 249 234 242 246 247 247 231 231 242 243 246 246 238 240 232 232 239 239 196 237 233 243 208 231 225 212 216 219 220 222 221 222 225 226
261 255 246 250 256 238 237 244 250 254 242 251 237 243 245 249 239 234 244 236 235 249 198 213 237 175 251 193 216 210 211 221 218 219 220 218 215 213
311 308 290 264 246 245 235 249 251 250 251 247 245 247 237 233 235 229 231 232 237 241 210 205 221 202 225 245 189 211 208 203 202 214 216 214 206 197
316 309 308 320 315 294 292 272 279 275 273 264 265 265 250 248 235 228 228 226 233 239 233 211 231 215 216 223 224 155 209 204 186 194 188 201 205 201
318 305 300 305 304 303 288 276 279 265 261 264 262 264 259 260 253 245 236 235 237 240 237 237 226 223 226 226 208 169 138 201 205 187 165 169 171 166
340 337 353 352 340 332 338 328 308 284 270 270 271 271 273 264 255 250 245 233 238 245 236 239 229 225 220 224 202 149 142 162 166 164 165 121 141 120
351 9 10 6 1 353 347 343 336 331 321 314 294 277 269 264 261 257 252 249 245 252 244 216 218 214 216 134 77 143 127 116 104 117 106 98 152 135
23 16 6 1 357 348 344 338 334 330 325 316 312 304 297 281 265 255 252 252 253 252 245 144 140 108 91 57 35 117 91 111 102 97 93 101 77 35
26 13 5 356 349 345 340 338 331 326 322 322 319 319 316 306 296 269 258 254 248 143 94 130 163 156 140 117 38 23 96 92 101 85 72 73 92 65
19 5 357 350 345 343 339 335 333 329 331 327 327 328 331 330 346 354 1 34 50 48 60 42 48 76 114 134 96 45 36 90 94 97 93 85 86 81
1 355 350 345 339 333 334 335 336 335 330 328 330 329 332 343 359 4 25 50 58 61 76 64 55 73 91 89 87 74 58 61 67 93 102 92 86 79
352 349 343 341 340 336 338 343 341 342 342 345 342 343 344 348 351 355 20 55 66 75 81 71 62 80 89 97 101 101 87 75 63 65 62 65 126 99
348 344 342 343 341 339 342 346 346 346 348 349 352 355 359 4 5 24 40 51 57 68 77 79 75 78 83 91 97 99 102 89 80 75 62 60 72 78